Time,TemperatureF,DewpointF,PressureIn,WindDirection,WindDirectionDegrees,WindSpeedMPH,WindSpeedGustMPH,Humidity,HourlyPrecipIn,Conditions,Clouds,dailyrainin,SoftwareType,DateUTC
2013-02-01 00:03:00,22.1,19.0,30.44,East,100,0.0,0.0,88,0.00,,,0.11,weatherlink.com 1.10,2013-02-01 07:03:00,
2013-02-01 00:18:00,22.2,19.0,30.44,East,100,0.0,0.0,88,0.00,,,0.11,weatherlink.com 1.10,2013-02-01 07:18:00,
2013-02-01 00:33:00,22.9,20.0,30.44,East,101,0.0,0.0,88,0.00,,,0.00,weatherlink.com 1.10,2013-02-01 07:33:00,
2013-02-01 00:48:00,23.3,20.0,30.43,SE,133,2.0,5.0,88,0.00,,,0.00,weatherlink.com 1.10,2013-02-01 07:48:00,
2013-02-01 01:03:00,23.0,20.0,30.43,SE,139,0.0,5.0,88,0.00,,,0.00,weatherlink.com 1.10,2013-02-01 08:03:00,
2013-02-01 01:18:00,22.8,20.0,30.43,SE,140,0.0,2.0,87,0.00,,,0.00,weatherlink.com 1.10,2013-02-01 08:18:00,
2013-02-01 01:33:00,22.1,19.0,30.42,SE,144,0.0,4.0,88,0.00,,,0.00,weatherlink.com 1.10,2013-02-01 08:33:00,
2013-02-01 01:48:00,21.5,19.0,30.43,SSE,162,3.0,7.0,88,0.00,,,0.00,weatherlink.com 1.10,2013-02-01 08:48:00,
2013-02-01 02:03:00,21.2,18.0,30.43,SSE,162,0.0,3.0,87,0.00,,,0.00,weatherlink.com 1.10,2013-02-01 09:03:00,
2013-02-01 02:18:00,22.0,19.0,30.43,SSE,149,2.0,4.0,88,0.00,,,0.00,weatherlink.com 1.10,2013-02-01 09:18:00,
2013-02-01 02:33:00,22.4,19.0,30.42,SSE,149,0.0,0.0,88,0.00,,,0.00,weatherlink.com 1.10,2013-02-01 09:33:00,
2013-02-01 02:48:00,23.0,19.0,30.42,SE,124,1.0,4.0,86,0.00,,,0.00,weatherlink.com 1.10,2013-02-01 09:48:00,
2013-02-01 03:03:00,22.9,19.0,30.41,ESE,118,0.0,5.0,85,0.00,,,0.00,weatherlink.com 1.10,2013-02-01 10:03:00,
2013-02-01 03:18:00,21.4,18.0,30.41,ESE,107,0.0,1.0,87,0.00,,,0.00,weatherlink.com 1.10,2013-02-01 10:18:00,
2013-02-01 03:33:00,21.5,19.0,30.40,ESE,107,0.0,0.0,88,0.00,,,0.00,weatherlink.com 1.10,2013-02-01 10:33:00,
2013-02-01 03:48:00,21.5,19.0,30.40,ESE,107,0.0,0.0,88,0.00,,,0.00,weatherlink.com 1.10,2013-02-01 10:48:00,
2013-02-01 04:03:00,21.4,18.0,30.40,ESE,108,0.0,0.0,88,0.00,,,0.00,weatherlink.com 1.10,2013-02-01 11:03:00,
2013-02-01 04:19:00,21.4,18.0,30.39,ESE,108,0.0,0.0,88,0.00,,,0.00,weatherlink.com 1.10,2013-02-01 11:19:00,
2013-02-01 04:33:00,21.6,18.0,30.39,ESE,108,0.0,0.0,87,0.00,,,0.00,weatherlink.com 1.10,2013-02-01 11:33:00,
2013-02-01 04:49:00,22.0,19.0,30.39,ESE,108,0.0,0.0,87,0.00,,,0.00,weatherlink.com 1.10,2013-02-01 11:49:00,
2013-02-01 05:04:00,21.8,19.0,30.38,ESE,108,0.0,0.0,87,0.00,,,0.00,weatherlink.com 1.10,2013-02-01 12:04:00,
2013-02-01 05:19:00,21.6,18.0,30.38,ESE,108,0.0,0.0,87,0.00,,,0.00,weatherlink.com 1.10,2013-02-01 12:19:00,
2013-02-01 05:34:00,22.2,19.0,30.39,ESE,108,0.0,0.0,86,0.00,,,0.00,weatherlink.com 1.10,2013-02-01 12:34:00,
2013-02-01 05:49:00,21.2,18.0,30.39,ESE,108,0.0,0.0,87,0.00,,,0.00,weatherlink.com 1.10,2013-02-01 12:49:00,
2013-02-01 06:04:00,21.3,18.0,30.39,ESE,103,0.0,0.0,88,0.00,,,0.00,weatherlink.com 1.10,2013-02-01 13:04:00,
2013-02-01 06:19:00,21.4,18.0,30.39,ESE,103,0.0,0.0,88,0.00,,,0.00,weatherlink.com 1.10,2013-02-01 13:19:00,
2013-02-01 06:34:00,21.6,18.0,30.39,East,80,0.0,3.0,87,0.00,,,0.00,weatherlink.com 1.10,2013-02-01 13:34:00,
2013-02-01 06:49:00,22.5,19.0,30.40,NW,319,0.0,0.0,87,0.00,,,0.00,weatherlink.com 1.10,2013-02-01 13:49:00,
2013-02-01 07:04:00,22.8,19.0,30.40,West,281,2.0,5.0,86,0.00,,,0.00,weatherlink.com 1.10,2013-02-01 14:04:00,
2013-02-01 07:19:00,22.6,19.0,30.41,West,278,0.0,0.0,86,0.00,,,0.00,weatherlink.com 1.10,2013-02-01 14:19:00,
2013-02-01 07:34:00,22.2,19.0,30.41,SSW,205,0.0,4.0,87,0.00,,,0.00,weatherlink.com 1.10,2013-02-01 14:34:00,
2013-02-01 07:49:00,21.9,19.0,30.41,SW,233,0.0,0.0,88,0.00,,,0.00,weatherlink.com 1.10,2013-02-01 14:49:00,
2013-02-01 08:04:00,22.1,19.0,30.41,SSE,165,0.0,0.0,89,0.00,,,0.00,weatherlink.com 1.10,2013-02-01 15:04:00,
2013-02-01 08:19:00,22.6,20.0,30.41,SSE,159,0.0,4.0,89,0.00,,,0.00,weatherlink.com 1.10,2013-02-01 15:19:00,
2013-02-01 08:34:00,23.3,21.0,30.41,SSE,160,0.0,0.0,90,0.00,,,0.00,weatherlink.com 1.10,2013-02-01 15:34:00,
2013-02-01 08:49:00,24.0,21.0,30.41,SSE,159,0.0,0.0,89,0.00,,,0.00,weatherlink.com 1.10,2013-02-01 15:49:00,
2013-02-01 09:04:00,24.3,21.0,30.42,NE,52,0.0,0.0,88,0.00,,,0.00,weatherlink.com 1.10,2013-02-01 16:04:00,
2013-02-01 09:19:00,24.8,22.0,30.42,NE,37,0.0,4.0,88,0.00,,,0.00,weatherlink.com 1.10,2013-02-01 16:19:00,
2013-02-01 09:34:00,25.0,22.0,30.42,NE,37,0.0,4.0,87,0.00,,,0.00,weatherlink.com 1.10,2013-02-01 16:34:00,
2013-02-01 09:49:00,25.3,22.0,30.41,NE,34,0.0,0.0,87,0.00,,,0.00,weatherlink.com 1.10,2013-02-01 16:49:00,
2013-02-01 10:04:00,25.5,22.0,30.42,North,360,0.0,0.0,87,0.00,,,0.00,weatherlink.com 1.10,2013-02-01 17:04:00,
2013-02-01 10:19:00,25.8,23.0,30.42,North,360,0.0,0.0,87,0.00,,,0.00,weatherlink.com 1.10,2013-02-01 17:19:00,
2013-02-01 10:34:00,26.3,23.0,30.42,North,360,0.0,0.0,86,0.00,,,0.00,weatherlink.com 1.10,2013-02-01 17:34:00,
2013-02-01 10:49:00,26.7,23.0,30.42,North,360,0.0,0.0,86,0.00,,,0.00,weatherlink.com 1.10,2013-02-01 17:49:00,
2013-02-01 11:04:00,27.2,23.0,30.42,North,360,0.0,0.0,85,0.00,,,0.00,weatherlink.com 1.10,2013-02-01 18:04:00,
2013-02-01 11:19:00,28.6,23.0,30.41,West,270,0.0,5.0,80,0.00,,,0.00,weatherlink.com 1.10,2013-02-01 18:19:00,
2013-02-01 11:34:00,28.2,23.0,30.41,West,269,0.0,4.0,82,0.00,,,0.00,weatherlink.com 1.10,2013-02-01 18:34:00,
2013-02-01 11:49:00,28.1,23.0,30.40,West,269,0.0,2.0,82,0.01,,,0.01,weatherlink.com 1.10,2013-02-01 18:49:00,
2013-02-01 12:04:00,29.3,24.0,30.40,West,269,0.0,4.0,82,0.01,,,0.01,weatherlink.com 1.10,2013-02-01 19:04:00,
2013-02-01 12:19:00,29.4,24.0,30.39,WNW,298,4.0,7.0,81,0.01,,,0.01,weatherlink.com 1.10,2013-02-01 19:19:00,
2013-02-01 12:34:00,29.7,24.0,30.38,WNW,302,4.0,8.0,80,0.01,,,0.01,weatherlink.com 1.10,2013-02-01 19:34:00,
2013-02-01 12:49:00,29.6,24.0,30.37,NW,309,6.0,13.0,78,0.00,,,0.01,weatherlink.com 1.10,2013-02-01 19:49:00,
2013-02-01 13:04:00,30.2,24.0,30.37,NW,307,10.0,13.0,76,0.00,,,0.01,weatherlink.com 1.10,2013-02-01 20:04:00,
2013-02-01 13:19:00,31.1,24.0,30.36,West,272,10.0,13.0,74,0.00,,,0.01,weatherlink.com 1.10,2013-02-01 20:19:00,
2013-02-01 13:34:00,30.7,24.0,30.36,NW,306,12.0,15.0,76,0.00,,,0.01,weatherlink.com 1.10,2013-02-01 20:34:00,
2013-02-01 13:49:00,30.2,24.0,30.36,NW,307,13.0,15.0,76,0.00,,,0.01,weatherlink.com 1.10,2013-02-01 20:49:00,
2013-02-01 14:04:00,29.6,23.0,30.36,WNW,302,13.0,16.0,76,0.00,,,0.01,weatherlink.com 1.10,2013-02-01 21:04:00,
2013-02-01 14:19:00,29.9,24.0,30.36,NW,307,17.0,17.0,77,0.00,,,0.01,weatherlink.com 1.10,2013-02-01 21:19:00,
2013-02-01 14:34:00,30.7,24.0,30.37,NW,319,5.0,18.0,75,0.00,,,0.01,weatherlink.com 1.10,2013-02-01 21:34:00,
2013-02-01 14:49:00,30.6,23.0,30.37,WNW,300,10.0,19.0,73,0.00,,,0.01,weatherlink.com 1.10,2013-02-01 21:49:00,
2013-02-01 15:04:00,29.4,22.0,30.37,WNW,302,14.0,18.0,73,0.00,,,0.01,weatherlink.com 1.10,2013-02-01 22:04:00,
2013-02-01 15:19:00,29.7,22.0,30.38,WNW,288,6.0,16.0,74,0.00,,,0.01,weatherlink.com 1.10,2013-02-01 22:19:00,
2013-02-01 15:34:00,29.9,23.0,30.38,West,275,7.0,15.0,74,0.00,,,0.01,weatherlink.com 1.10,2013-02-01 22:34:00,
2013-02-01 15:49:00,31.2,23.0,30.38,NW,311,0.0,12.0,72,0.00,,,0.01,weatherlink.com 1.10,2013-02-01 22:49:00,
2013-02-01 16:04:00,30.3,23.0,30.38,NNW,347,3.0,9.0,73,0.00,,,0.01,weatherlink.com 1.10,2013-02-01 23:04:00,
2013-02-01 16:19:00,29.6,23.0,30.38,North,354,4.0,12.0,76,0.00,,,0.01,weatherlink.com 1.10,2013-02-01 23:19:00,
2013-02-01 16:34:00,30.1,23.0,30.39,NNW,340,6.0,10.0,74,0.00,,,0.01,weatherlink.com 1.10,2013-02-01 23:34:00,
2013-02-01 16:49:00,29.5,23.0,30.40,North,350,3.0,7.0,75,0.00,,,0.01,weatherlink.com 1.10,2013-02-01 23:49:00,
2013-02-01 17:04:00,28.8,22.0,30.40,North,1,2.0,2.0,77,0.00,,,0.01,weatherlink.com 1.10,2013-02-02 00:04:00,
2013-02-01 17:19:00,29.1,22.0,30.41,NE,45,2.0,6.0,76,0.00,,,0.01,weatherlink.com 1.10,2013-02-02 00:19:00,
2013-02-01 17:34:00,28.8,22.0,30.41,NE,37,2.0,6.0,74,0.00,,,0.01,weatherlink.com 1.10,2013-02-02 00:34:00,
2013-02-01 17:49:00,28.1,21.0,30.41,NNE,29,0.0,0.0,75,0.00,,,0.01,weatherlink.com 1.10,2013-02-02 00:49:00,
2013-02-01 18:05:00,27.9,21.0,30.41,North,354,0.0,0.0,75,0.00,,,0.01,weatherlink.com 1.10,2013-02-02 01:05:00,
2013-02-01 18:20:00,27.4,21.0,30.42,NW,322,0.0,2.0,76,0.00,,,0.01,weatherlink.com 1.10,2013-02-02 01:20:00,
2013-02-01 18:35:00,27.2,21.0,30.43,WNW,298,0.0,0.0,78,0.00,,,0.01,weatherlink.com 1.10,2013-02-02 01:35:00,
2013-02-01 18:51:00,27.4,21.0,30.44,WNW,298,0.0,0.0,78,0.00,,,0.01,weatherlink.com 1.10,2013-02-02 01:51:00,
2013-02-01 19:05:00,27.1,21.0,30.45,WNW,300,0.0,1.0,79,0.00,,,0.01,weatherlink.com 1.10,2013-02-02 02:05:00,
2013-02-01 19:20:00,27.5,22.0,30.45,NW,309,0.0,1.0,78,0.00,,,0.01,weatherlink.com 1.10,2013-02-02 02:20:00,
2013-02-01 19:35:00,27.1,21.0,30.45,NW,309,0.0,0.0,78,0.00,,,0.01,weatherlink.com 1.10,2013-02-02 02:35:00,
2013-02-01 19:50:00,26.9,21.0,30.46,NW,309,0.0,0.0,79,0.00,,,0.01,weatherlink.com 1.10,2013-02-02 02:50:00,
2013-02-01 20:05:00,26.6,21.0,30.46,NE,43,0.0,3.0,79,0.00,,,0.01,weatherlink.com 1.10,2013-02-02 03:05:00,
2013-02-01 20:20:00,25.6,21.0,30.46,ENE,60,2.0,4.0,82,0.00,,,0.01,weatherlink.com 1.10,2013-02-02 03:20:00,
2013-02-01 20:35:00,25.8,21.0,30.47,ENE,60,1.0,2.0,82,0.00,,,0.01,weatherlink.com 1.10,2013-02-02 03:35:00,
2013-02-01 20:50:00,26.0,21.0,30.47,ENE,60,0.0,2.0,81,0.00,,,0.01,weatherlink.com 1.10,2013-02-02 03:50:00,
2013-02-01 21:05:00,26.0,21.0,30.48,ENE,60,0.0,0.0,81,0.00,,,0.01,weatherlink.com 1.10,2013-02-02 04:05:00,
2013-02-01 21:20:00,26.5,21.0,30.49,ENE,60,0.0,0.0,79,0.00,,,0.01,weatherlink.com 1.10,2013-02-02 04:20:00,
2013-02-01 21:35:00,25.7,20.0,30.49,ENE,65,3.0,4.0,80,0.00,,,0.01,weatherlink.com 1.10,2013-02-02 04:35:00,
2013-02-01 21:50:00,25.2,20.0,30.50,ENE,66,1.0,3.0,82,0.00,,,0.01,weatherlink.com 1.10,2013-02-02 04:50:00,
2013-02-01 22:05:00,26.3,20.0,30.50,ENE,66,1.0,3.0,78,0.00,,,0.01,weatherlink.com 1.10,2013-02-02 05:05:00,
2013-02-01 22:20:00,26.4,20.0,30.50,ENE,73,2.0,4.0,77,0.00,,,0.01,weatherlink.com 1.10,2013-02-02 05:20:00,
2013-02-01 22:35:00,26.4,20.0,30.51,ENE,74,0.0,2.0,77,0.00,,,0.01,weatherlink.com 1.10,2013-02-02 05:35:00,
2013-02-01 22:50:00,26.0,20.0,30.51,ENE,74,0.0,0.0,78,0.00,,,0.01,weatherlink.com 1.10,2013-02-02 05:50:00,
2013-02-01 23:06:00,25.5,20.0,30.51,ENE,74,0.0,0.0,78,0.00,,,0.01,weatherlink.com 1.10,2013-02-02 06:06:00,
2013-02-01 23:20:00,24.1,19.0,30.51,ENE,74,0.0,0.0,80,0.00,,,0.01,weatherlink.com 1.10,2013-02-02 06:20:00,
2013-02-01 23:35:00,21.8,17.0,30.50,ENE,74,2.0,3.0,81,0.00,,,0.01,weatherlink.com 1.10,2013-02-02 06:35:00,
2013-02-01 23:50:00,21.9,17.0,30.51,ENE,73,0.0,0.0,81,0.00,,,0.01,weatherlink.com 1.10,2013-02-02 06:50:00,